Location: Wingville
(42.9917°N, 90.4915°W)
Time: 11:13:06
(UTC+00:00)

AIST 2D - Visible Passes

Search period start: 25 June 2022 00:00
Search period end: 05 July 2022 00:00
Orbit: 433 x 449 km, 97.1° (Epoch: 24 June)

Date Brightness Start Highest point End Pass type
(mag) Time Alt. Az. Time Alt. Az. Time Alt. Az.
25 Jun ? 02:46:06 10° NE 02:48:09 15° E 02:49:19 13° ESE visible
25 Jun ? 04:17:57 10° NNW 04:20:49 27° WNW 04:22:47 16° WSW visible
26 Jun ? 03:39:58 10° NNE 03:43:17 88° ESE 03:44:47 30° S visible
27 Jun ? 03:02:44 10° NE 03:05:32 25° E 03:06:47 20° SE visible
27 Jun ? 04:35:44 10° NNW 04:37:59 17° WNW 04:40:12 10° WSW visible
28 Jun ? 03:57:16 10° N 04:00:29 51° WNW 04:02:12 24° SW visible
29 Jun ? 03:19:36 10° NNE 03:22:48 43° E 03:24:08 28° SSE visible
29 Jun ? 04:54:08 10° NW 04:55:01 11° WNW 04:55:52 10° W visible
30 Jun ? 02:43:00 10° ENE 02:44:53 14° E 02:46:03 12° ESE visible
30 Jun ? 04:14:37 10° N 04:17:34 29° WNW 04:19:31 17° WSW visible
01 Jul ? 03:36:35 10° NNE 03:39:55 79° ESE 03:41:24 31° S visible
02 Jul ? 02:59:19 10° NE 03:02:03 23° E 03:03:16 19° SE visible
02 Jul ? 04:32:08 10° NNW 04:34:31 19° WNW 04:36:43 11° WSW visible
03 Jul ? 03:53:38 10° N 03:56:55 57° WNW 03:58:32 26° SW visible
04 Jul ? 03:15:56 10° NNE 03:19:05 39° E 03:20:22 27° SSE visible
04 Jul ? 04:50:02 10° NW 04:51:19 12° WNW 04:52:38 10° W visible
